Tracking 27380 objects as of 6-Jun-2023
HD Live streaming from Space Station
objects crossing your sky now

OPS 4682 DEB

Track OPS 4682 DEB now!
10-day predictions


NORAD ID: 38385
Int'l Code: 1965-027CN
Perigee: 1,247.9 km
Apogee: 1,320.3 km
Inclination: 90.3 °
Period: 111.1 minutes
Semi major axis: 7655 km
RCS: 0.0101 m2 (small)
Launch date: April 3, 1965
Source: United States (US)
Launch site: AIR FORCE WESTERN TEST RANGE (AFWTR)

Note: This is SATELLITE DEBRIS
Your satellite tracking list
Your tracking list is empty




NASA's NSSDC Master Catalog

Two Line Element Set (TLE):
1 38385U 65027CN  23156.22637438  .00000045  00000-0  12941-3 0  9998
2 38385  90.2600 333.8120 0047263 106.4661 254.1660 12.96211572471891
Source of the keplerian elements: AFSPC